#datint,netname,site,siteID,timestamp,AirT,Td,RH_Avg,Solar_W,WindS_Max,WindS_Avg,WindD_Avg,Rain,rain_hour,rain_day,SoilT4,SoilT8,SoilVWC
15min,AgWx,beryljct,423,16JAN2017:00:00:00,30.1,23.4,76,0,12.7,7.9,33,0.00,0.00,0.00,33.7,35.7,28
15min,AgWx,beryljct,423,16JAN2017:00:15:00,30.1,22.5,73,0,14.7,9.2,28,0.00,0.00,0.00,33.5,35.7,28
15min,AgWx,beryljct,423,16JAN2017:00:30:00,30.0,22.6,73,0,10.7,8.5,25,0.00,0.00,0.00,33.6,35.7,28
15min,AgWx,beryljct,423,16JAN2017:00:45:00,30.1,22.6,73,0,15.8,9.9,32,0.00,0.00,0.00,33.5,35.7,28
15min,AgWx,beryljct,423,16JAN2017:01:00:00,30.0,23.1,75,0,15.8,10.6,31,0.00,0.00,0.00,33.5,35.7,28
15min,AgWx,beryljct,423,16JAN2017:01:15:00,30.0,22.9,75,0,14.3,10.0,27,0.00,0.00,0.00,33.5,35.6,28
15min,AgWx,beryljct,423,16JAN2017:01:30:00,29.9,22.6,74,0,12.8,9.2,21,0.00,0.00,0.00,33.5,35.6,28
15min,AgWx,beryljct,423,16JAN2017:01:45:00,29.8,22.4,74,0,13.3,10.6,22,0.00,0.00,0.00,33.5,35.6,28
15min,AgWx,beryljct,423,16JAN2017:02:00:00,29.5,21.5,71,0,14.3,11.4,20,0.00,0.00,0.00,33.4,35.6,28
15min,AgWx,beryljct,423,16JAN2017:02:15:00,29.4,21.2,71,0,16.1,11.7,23,0.00,0.00,0.00,33.4,35.6,28
15min,AgWx,beryljct,423,16JAN2017:02:30:00,29.4,22.1,74,0,13.2,9.3,22,0.00,0.00,0.00,33.4,35.6,28
15min,AgWx,beryljct,423,16JAN2017:02:45:00,29.3,22.2,74,0,13.8,9.7,25,0.00,0.00,0.00,33.4,35.6,28
15min,AgWx,beryljct,423,16JAN2017:03:00:00,28.7,21.5,74,0,14.5,10.2,17,0.00,0.00,0.00,33.3,35.6,28
15min,AgWx,beryljct,423,16JAN2017:03:15:00,28.6,21.7,75,0,12.3,8.9,17,0.00,0.00,0.00,33.4,35.6,28
15min,AgWx,beryljct,423,16JAN2017:03:30:00,28.6,21.9,76,0,13.1,9.7,25,0.00,0.00,0.00,33.3,35.6,28
15min,AgWx,beryljct,423,16JAN2017:03:45:00,28.6,22.5,78,0,13.3,9.7,24,0.00,0.00,0.00,33.3,35.5,28
15min,AgWx,beryljct,423,16JAN2017:04:00:00,28.7,22.6,78,0,15.6,9.7,24,0.00,0.00,0.00,33.2,35.5,28
15min,AgWx,beryljct,423,16JAN2017:04:15:00,28.4,21.9,76,0,19.0,13.9,37,0.00,0.00,0.00,33.3,35.5,28
15min,AgWx,beryljct,423,16JAN2017:04:30:00,28.3,21.5,75,0,20.2,14.0,42,0.00,0.00,0.00,33.3,35.5,28
15min,AgWx,beryljct,423,16JAN2017:04:45:00,28.2,21.5,76,0,19.1,14.0,37,0.00,0.00,0.00,33.3,35.5,28
15min,AgWx,beryljct,423,16JAN2017:05:00:00,28.1,21.9,77,0,17.1,13.1,35,0.00,0.00,0.00,33.1,35.5,28
15min,AgWx,beryljct,423,16JAN2017:05:15:00,28.0,21.8,77,0,19.8,14.0,39,0.00,0.00,0.00,33.3,35.5,28
15min,AgWx,beryljct,423,16JAN2017:05:30:00,28.1,21.4,76,0,20.6,15.9,44,0.00,0.00,0.00,33.2,35.5,28
15min,AgWx,beryljct,423,16JAN2017:05:45:00,28.0,21.4,76,0,19.6,15.5,39,0.00,0.00,0.00,33.2,35.4,28
15min,AgWx,beryljct,423,16JAN2017:06:00:00,28.2,21.5,76,0,18.6,13.7,30,0.00,0.00,0.00,33.2,35.4,28
15min,AgWx,beryljct,423,16JAN2017:06:15:00,28.2,21.7,76,0,16.4,12.3,35,0.00,0.00,0.00,33.1,35.4,28
15min,AgWx,beryljct,423,16JAN2017:06:30:00,28.0,21.9,78,0,15.0,10.6,43,0.00,0.00,0.00,33.1,35.4,28
15min,AgWx,beryljct,423,16JAN2017:06:45:00,28.1,21.7,77,0,15.1,11.9,39,0.00,0.00,0.00,33.1,35.4,28
15min,AgWx,beryljct,423,16JAN2017:07:00:00,27.9,21.7,77,0,16.1,12.1,43,0.00,0.00,0.00,33.0,35.4,28
15min,AgWx,beryljct,423,16JAN2017:07:15:00,27.8,22.2,79,0,16.6,12.1,41,0.00,0.00,0.00,33.0,35.3,28
15min,AgWx,beryljct,423,16JAN2017:07:30:00,27.7,22.1,79,0,18.3,13.4,38,0.00,0.00,0.00,33.1,35.4,28
15min,AgWx,beryljct,423,16JAN2017:07:45:00,27.8,21.7,78,1,18.8,14.0,34,0.00,0.00,0.00,33.0,35.3,28
15min,AgWx,beryljct,423,16JAN2017:08:00:00,27.8,20.8,75,3,19.0,13.2,31,0.00,0.00,0.00,33.0,35.3,28
15min,AgWx,beryljct,423,16JAN2017:08:15:00,27.6,20.6,74,9,17.9,13.5,33,0.00,0.00,0.00,33.0,35.3,28
15min,AgWx,beryljct,423,16JAN2017:08:30:00,27.6,20.8,75,14,17.7,13.2,32,0.00,0.00,0.00,32.9,35.3,28
15min,AgWx,beryljct,423,16JAN2017:08:45:00,27.8,19.9,72,34,18.0,12.8,27,0.00,0.00,0.00,32.9,35.3,28
15min,AgWx,beryljct,423,16JAN2017:09:00:00,28.1,18.9,69,66,18.9,13.5,33,0.00,0.00,0.00,32.9,35.3,28
15min,AgWx,beryljct,423,16JAN2017:09:15:00,28.0,18.4,67,103,19.3,14.2,36,0.00,0.00,0.00,32.9,35.3,28
15min,AgWx,beryljct,423,16JAN2017:09:30:00,27.9,18.6,68,117,20.0,15.8,36,0.00,0.00,0.00,33.0,35.2,28
15min,AgWx,beryljct,423,16JAN2017:09:45:00,28.3,18.4,67,125,18.8,14.0,33,0.00,0.00,0.00,32.9,35.2,28
15min,AgWx,beryljct,423,16JAN2017:10:00:00,28.3,18.0,65,218,18.4,14.5,40,0.00,0.00,0.00,32.9,35.3,28
15min,AgWx,beryljct,423,16JAN2017:10:15:00,28.3,18.6,67,160,20.4,14.5,35,0.00,0.00,0.00,32.9,35.2,28
15min,AgWx,beryljct,423,16JAN2017:10:30:00,29.8,18.1,62,396,22.8,16.9,46,0.00,0.00,0.00,32.8,35.2,29
15min,AgWx,beryljct,423,16JAN2017:10:45:00,29.2,18.6,63,354,21.6,16.6,48,0.00,0.00,0.00,32.8,35.2,28
15min,AgWx,beryljct,423,16JAN2017:11:00:00,29.5,19.2,64,412,21.8,17.5,44,0.00,0.00,0.00,32.7,35.2,28
15min,AgWx,beryljct,423,16JAN2017:11:15:00,30.1,19.6,65,415,22.2,15.7,41,0.00,0.00,0.00,32.8,35.2,28
15min,AgWx,beryljct,423,16JAN2017:11:30:00,31.1,19.6,64,465,20.3,17.1,40,0.00,0.00,0.00,32.8,35.1,28
15min,AgWx,beryljct,423,16JAN2017:11:45:00,30.3,20.0,64,489,20.4,16.0,46,0.00,0.00,0.00,32.8,35.1,28
15min,AgWx,beryljct,423,16JAN2017:12:00:00,30.8,19.6,64,504,21.0,15.5,49,0.00,0.00,0.00,32.7,35.1,28
15min,AgWx,beryljct,423,16JAN2017:12:15:00,31.7,19.6,63,523,20.4,15.5,50,0.00,0.00,0.00,32.9,35.1,28
15min,AgWx,beryljct,423,16JAN2017:12:30:00,31.2,19.4,61,530,25.0,17.4,46,0.00,0.00,0.00,32.8,35.1,28
15min,AgWx,beryljct,423,16JAN2017:12:45:00,32.3,19.8,61,532,20.5,14.6,52,0.00,0.00,0.00,32.9,35.1,28
15min,AgWx,beryljct,423,16JAN2017:13:00:00,31.8,19.8,60,534,18.7,14.3,47,0.00,0.00,0.00,32.7,35.0,28
15min,AgWx,beryljct,423,16JAN2017:13:15:00,32.8,20.2,60,522,17.1,13.6,49,0.00,0.00,0.00,32.8,35.1,28
15min,AgWx,beryljct,423,16JAN2017:13:30:00,32.3,20.3,60,517,18.6,14.2,55,0.00,0.00,0.00,32.7,35.1,28
15min,AgWx,beryljct,423,16JAN2017:13:45:00,32.8,20.2,60,506,20.3,14.9,53,0.00,0.00,0.00,32.8,35.0,28
15min,AgWx,beryljct,423,16JAN2017:14:00:00,34.0,20.2,59,501,18.0,13.5,61,0.00,0.00,0.00,32.7,35.0,28
15min,AgWx,beryljct,423,16JAN2017:14:15:00,33.8,20.3,58,483,19.1,13.6,50,0.00,0.00,0.00,32.8,35.0,28
15min,AgWx,beryljct,423,16JAN2017:14:30:00,34.2,20.3,58,462,19.4,14.9,52,0.00,0.00,0.00,32.7,35.0,28
15min,AgWx,beryljct,423,16JAN2017:14:45:00,34.5,20.6,58,438,18.9,14.2,48,0.00,0.00,0.00,32.8,35.0,28
15min,AgWx,beryljct,423,16JAN2017:15:00:00,34.4,20.4,57,411,19.7,15.4,47,0.00,0.00,0.00,32.9,35.0,28
15min,AgWx,beryljct,423,16JAN2017:15:15:00,34.0,19.8,55,382,20.9,16.2,46,0.00,0.00,0.00,32.8,35.0,28
15min,AgWx,beryljct,423,16JAN2017:15:30:00,33.9,19.7,56,348,21.8,16.5,45,0.00,0.00,0.00,32.9,35.0,28
15min,AgWx,beryljct,423,16JAN2017:15:45:00,33.5,20.3,58,313,20.1,15.8,55,0.00,0.00,0.00,33.0,35.0,28
15min,AgWx,beryljct,423,16JAN2017:16:00:00,33.4,20.3,57,275,20.1,15.7,44,0.00,0.00,0.00,33.2,35.0,28
15min,AgWx,beryljct,423,16JAN2017:16:15:00,33.2,20.1,57,237,21.8,15.6,46,0.00,0.00,0.00,33.4,35.0,28
15min,AgWx,beryljct,423,16JAN2017:16:30:00,32.9,20.5,59,197,19.0,14.9,48,0.00,0.00,0.00,33.6,35.0,28
15min,AgWx,beryljct,423,16JAN2017:16:45:00,32.6,20.2,59,157,19.1,14.9,50,0.00,0.00,0.00,33.6,35.0,28
15min,AgWx,beryljct,423,16JAN2017:17:00:00,32.0,20.1,60,118,18.3,13.7,47,0.00,0.00,0.00,33.8,35.0,29
15min,AgWx,beryljct,423,16JAN2017:17:15:00,31.7,19.7,61,82,19.0,14.8,48,0.00,0.00,0.00,33.7,35.0,28
15min,AgWx,beryljct,423,16JAN2017:17:30:00,30.4,20.1,63,28,16.4,11.8,43,0.00,0.00,0.00,33.7,35.1,28
15min,AgWx,beryljct,423,16JAN2017:17:45:00,30.0,20.2,66,7,15.4,11.9,45,0.00,0.00,0.00,33.6,35.0,28
15min,AgWx,beryljct,423,16JAN2017:18:00:00,29.6,20.7,69,2,14.2,11.1,45,0.00,0.00,0.00,33.7,35.1,28
15min,AgWx,beryljct,423,16JAN2017:18:15:00,29.1,20.7,70,0,14.2,11.6,42,0.00,0.00,0.00,33.5,35.1,28
15min,AgWx,beryljct,423,16JAN2017:18:30:00,28.4,20.9,72,0,14.1,10.2,39,0.00,0.00,0.00,33.5,35.1,28
15min,AgWx,beryljct,423,16JAN2017:18:45:00,28.3,20.7,72,0,14.2,10.7,42,0.00,0.00,0.00,33.5,35.2,28
15min,AgWx,beryljct,423,16JAN2017:19:00:00,28.1,20.7,73,0,15.2,11.5,38,0.00,0.00,0.00,33.4,35.2,28
15min,AgWx,beryljct,423,16JAN2017:19:15:00,27.7,20.9,74,0,15.8,11.9,39,0.00,0.00,0.00,33.5,35.1,28
15min,AgWx,beryljct,423,16JAN2017:19:30:00,27.5,21.3,77,0,14.7,9.7,33,0.00,0.00,0.00,33.4,35.2,28
15min,AgWx,beryljct,423,16JAN2017:19:45:00,26.7,21.5,80,0,11.2,7.7,39,0.00,0.00,0.00,33.4,35.2,28
15min,AgWx,beryljct,423,16JAN2017:20:00:00,26.7,21.1,80,0,12.2,8.4,35,0.00,0.00,0.00,33.3,35.2,28
15min,AgWx,beryljct,423,16JAN2017:20:15:00,26.2,20.6,78,0,12.9,7.9,36,0.00,0.00,0.00,33.3,35.2,28
15min,AgWx,beryljct,423,16JAN2017:20:30:00,25.7,19.8,77,0,9.9,6.5,34,0.00,0.00,0.00,33.2,35.1,28
15min,AgWx,beryljct,423,16JAN2017:20:45:00,25.4,19.3,77,0,9.6,8.2,45,0.00,0.00,0.00,33.3,35.2,28
15min,AgWx,beryljct,423,16JAN2017:21:00:00,25.3,19.2,77,0,11.1,8.7,43,0.00,0.00,0.00,33.1,35.2,28
15min,AgWx,beryljct,423,16JAN2017:21:15:00,24.7,19.2,78,0,10.8,7.6,48,0.00,0.00,0.00,33.2,35.2,28
15min,AgWx,beryljct,423,16JAN2017:21:30:00,24.1,19.1,80,0,8.5,6.6,53,0.00,0.00,0.00,33.2,35.2,28
15min,AgWx,beryljct,423,16JAN2017:21:45:00,24.3,18.9,80,0,9.3,7.2,53,0.00,0.00,0.00,33.1,35.2,28
15min,AgWx,beryljct,423,16JAN2017:22:00:00,24.0,18.7,80,0,8.0,5.7,60,0.00,0.00,0.00,33.0,35.2,28
15min,AgWx,beryljct,423,16JAN2017:22:15:00,23.8,18.7,80,0,8.3,5.7,53,0.00,0.00,0.00,33.0,35.1,28
15min,AgWx,beryljct,423,16JAN2017:22:30:00,23.5,18.8,82,0,6.4,4.5,42,0.00,0.00,0.00,32.9,35.2,28
15min,AgWx,beryljct,423,16JAN2017:22:45:00,22.6,18.8,84,0,6.4,4.3,51,0.00,0.00,0.00,33.0,35.1,28
15min,AgWx,beryljct,423,16JAN2017:23:00:00,22.1,18.7,86,0,5.4,4.0,45,0.00,0.00,0.00,32.9,35.1,28
15min,AgWx,beryljct,423,16JAN2017:23:15:00,22.0,18.9,88,0,6.8,4.8,38,0.00,0.00,0.00,32.8,35.1,28
15min,AgWx,beryljct,423,16JAN2017:23:30:00,22.4,19.0,88,0,8.2,6.4,39,0.00,0.00,0.00,32.9,35.1,28
15min,AgWx,beryljct,423,16JAN2017:23:45:00,21.7,18.9,87,0,9.3,6.4,43,0.00,0.00,0.00,32.8,35.1,28
15min,AgWx,birchsprings,428,16JAN2017:00:00:00,9.2,6.7,88,0,5.9,4.4,29,0.00,0.00,0.00,25.6,0.0,.
15min,AgWx,birchsprings,428,16JAN2017:00:15:00,8.8,6.2,88,0,6.1,4.0,20,0.00,0.00,0.00,25.7,0.0,.
15min,AgWx,birchsprings,428,16JAN2017:00:30:00,8.3,5.6,88,0,5.2,3.7,25,0.00,0.00,0.00,25.7,0.0,.
15min,AgWx,birchsprings,428,16JAN2017:00:45:00,8.3,5.3,87,0,5.6,3.6,13,0.00,0.00,0.00,25.7,0.0,.
15min,AgWx,birchsprings,428,16JAN2017:01:00:00,8.2,5.0,87,0,4.6,2.2,0.8,0.00,0.00,0.00,25.7,0.0,.
15min,AgWx,birchsprings,428,16JAN2017:01:15:00,8.3,5.1,87,0,3.1,1.8,3.9,0.00,0.00,0.00,25.6,0.0,.
15min,AgWx,birchsprings,428,16JAN2017:01:30:00,8.8,5.4,88,0,3.3,2.2,26,0.00,0.00,0.00,25.6,0.0,.
15min,AgWx,birchsprings,428,16JAN2017:01:45:00,9.0,6.2,88,0,2.9,1.7,346,0.00,0.00,0.00,25.7,0.0,.
15min,AgWx,birchsprings,428,16JAN2017:02:00:00,8.8,6.0,87,0,3.0,2.0,360,0.00,0.00,0.00,25.6,0.0,.
15min,AgWx,birchsprings,428,16JAN2017:02:15:00,8.9,5.7,87,0,2.9,1.4,337,0.00,0.00,0.00,25.6,0.0,.
15min,AgWx,birchsprings,428,16JAN2017:02:30:00,9.3,6.2,88,0,3.1,1.7,309,0.00,0.00,0.00,25.6,0.0,.
15min,AgWx,birchsprings,428,16JAN2017:02:45:00,9.3,6.6,88,0,3.5,1.9,327,0.00,0.00,0.00,25.6,0.0,.
15min,AgWx,birchsprings,428,16JAN2017:03:00:00,8.1,5.4,87,0,5.3,3.4,359,0.00,0.00,0.00,25.5,0.0,.
15min,AgWx,birchsprings,428,16JAN2017:03:15:00,6.6,4.2,86,0,6.0,3.8,10,0.00,0.00,0.00,25.6,0.0,.
15min,AgWx,birchsprings,428,16JAN2017:03:30:00,6.3,2.9,85,0,5.3,3.1,20,0.00,0.00,0.00,25.5,0.0,.
15min,AgWx,birchsprings,428,16JAN2017:03:45:00,6.5,2.7,85,0,4.6,2.6,14,0.00,0.00,0.00,25.4,0.0,.
15min,AgWx,birchsprings,428,16JAN2017:04:00:00,6.6,2.9,85,0,3.1,2.1,355,0.00,0.00,0.00,25.5,0.0,.
15min,AgWx,birchsprings,428,16JAN2017:04:15:00,6.9,3.3,85,0,2.4,1.4,346,0.00,0.00,0.00,25.5,0.0,.
15min,AgWx,birchsprings,428,16JAN2017:04:30:00,7.0,3.4,85,0,2.8,1.6,1.3,0.00,0.00,0.00,25.4,0.0,.
15min,AgWx,birchsprings,428,16JAN2017:04:45:00,7.4,3.9,86,0,3.0,1.9,357,0.00,0.00,0.00,25.4,0.0,.
15min,AgWx,birchsprings,428,16JAN2017:05:00:00,6.9,3.4,85,0,4.4,2.8,323,0.00,0.00,0.00,25.4,0.0,.
15min,AgWx,birchsprings,428,16JAN2017:05:15:00,7.0,3.5,86,0,3.3,2.1,334,0.00,0.00,0.00,25.5,0.0,.
15min,AgWx,birchsprings,428,16JAN2017:05:30:00,6.4,3.2,85,0,3.4,2.2,359,0.00,0.00,0.00,25.4,0.0,.
15min,AgWx,birchsprings,428,16JAN2017:05:45:00,6.6,2.8,85,0,2.6,1.3,355,0.00,0.00,0.00,25.3,0.0,.
15min,AgWx,birchsprings,428,16JAN2017:06:00:00,7.2,3.5,85,0,2.4,1.4,57,0.00,0.00,0.00,25.4,0.0,.
15min,AgWx,birchsprings,428,16JAN2017:06:15:00,7.3,3.8,86,0,1.8,0.5,42,0.00,0.00,0.00,25.4,0.0,.
15min,AgWx,birchsprings,428,16JAN2017:06:30:00,6.7,3.5,85,0,3.0,1.5,10,0.00,0.00,0.00,25.4,0.0,.
15min,AgWx,birchsprings,428,16JAN2017:06:45:00,5.5,2.2,84,0,4.1,2.7,7.0,0.00,0.00,0.00,25.3,0.0,.
15min,AgWx,birchsprings,428,16JAN2017:07:00:00,4.8,1.0,83,0,4.1,2.4,9.3,0.00,0.00,0.00,25.3,0.0,.
15min,AgWx,birchsprings,428,16JAN2017:07:15:00,4.8,0.8,83,0,3.7,1.5,3.0,0.00,0.00,0.00,25.4,0.0,.
15min,AgWx,birchsprings,428,16JAN2017:07:30:00,4.3,0.7,83,0,3.5,2.4,4.8,0.00,0.00,0.00,25.3,0.0,.
15min,AgWx,birchsprings,428,16JAN2017:07:45:00,4.0,0.1,83,2,3.9,2.7,16,0.00,0.00,0.00,25.3,0.0,.
15min,AgWx,birchsprings,428,16JAN2017:08:00:00,4.2,0.1,83,6,3.5,1.9,12,0.00,0.00,0.00,25.3,0.0,.
15min,AgWx,birchsprings,428,16JAN2017:08:15:00,4.6,0.4,83,17,3.1,1.9,357,0.00,0.00,0.00,25.3,0.0,.
15min,AgWx,birchsprings,428,16JAN2017:08:30:00,4.6,0.4,83,30,2.0,1.5,5.3,0.00,0.00,0.00,25.3,0.0,.
15min,AgWx,birchsprings,428,16JAN2017:08:45:00,4.4,0.5,83,42,3.5,2.3,359,0.00,0.00,0.00,25.2,0.0,.
15min,AgWx,birchsprings,428,16JAN2017:09:00:00,3.6,-0.5,82,62,3.5,2.6,7.5,0.00,0.00,0.00,25.2,0.0,.
15min,AgWx,birchsprings,428,16JAN2017:09:15:00,3.3,-0.7,82,75,5.1,3.1,1.5,0.00,0.00,0.00,25.2,0.0,.
15min,AgWx,birchsprings,428,16JAN2017:09:30:00,3.1,-1.7,81,94,5.6,3.7,5.4,0.00,0.00,0.00,25.2,0.0,.
15min,AgWx,birchsprings,428,16JAN2017:09:45:00,2.9,-1.6,81,112,4.6,2.7,19,0.00,0.00,0.00,25.2,0.0,.
15min,AgWx,birchsprings,428,16JAN2017:10:00:00,2.4,-2.0,80,135,4.8,3.3,20,0.00,0.00,0.00,25.1,0.0,.
15min,AgWx,birchsprings,428,16JAN2017:10:15:00,1.9,-2.8,80,153,3.9,2.7,12,0.00,0.00,0.00,25.1,0.0,.
15min,AgWx,birchsprings,428,16JAN2017:10:30:00,2.5,-2.5,80,178,3.6,2.0,13,0.00,0.00,0.00,25.1,0.0,.
15min,AgWx,birchsprings,428,16JAN2017:10:45:00,3.4,-2.1,80,191,3.1,2.0,15,0.00,0.00,0.00,25.2,0.0,.
15min,AgWx,birchsprings,428,16JAN2017:11:00:00,3.5,-0.8,81,195,3.6,1.6,60,0.00,0.00,0.00,25.1,0.0,.
15min,AgWx,birchsprings,428,16JAN2017:11:15:00,4.8,-0.2,81,212,2.4,0.9,83,0.00,0.00,0.00,25.1,0.0,.
15min,AgWx,birchsprings,428,16JAN2017:11:30:00,6.2,1.2,82,229,2.7,0.7,110,0.00,0.00,0.00,25.1,0.0,.
15min,AgWx,birchsprings,428,16JAN2017:11:45:00,6.5,1.9,82,250,2.5,0.7,103,0.00,0.00,0.00,25.1,0.0,.
15min,AgWx,birchsprings,428,16JAN2017:12:00:00,7.9,3.0,82,273,2.9,0.6,110,0.00,0.00,0.00,25.1,0.0,.
15min,AgWx,birchsprings,428,16JAN2017:12:15:00,8.0,3.4,82,288,2.8,1.2,129,0.00,0.00,0.00,25.1,0.0,.
15min,AgWx,birchsprings,428,16JAN2017:12:30:00,7.3,3.4,82,294,2.7,1.1,200,0.00,0.00,0.00,25.1,0.0,.
15min,AgWx,birchsprings,428,16JAN2017:12:45:00,8.5,4.9,84,303,4.1,1.4,138,0.00,0.00,0.00,25.0,0.0,.
15min,AgWx,birchsprings,428,16JAN2017:13:00:00,8.4,3.6,81,311,3.1,1.6,66,0.00,0.00,0.00,25.0,0.0,.
15min,AgWx,birchsprings,428,16JAN2017:13:15:00,9.6,4.1,82,312,3.6,1.4,106,0.00,0.00,0.00,25.0,0.0,.
15min,AgWx,birchsprings,428,16JAN2017:13:30:00,8.8,4.5,82,300,3.6,2.0,33,0.00,0.00,0.00,25.1,0.0,.
15min,AgWx,birchsprings,428,16JAN2017:13:45:00,7.5,3.6,82,287,4.3,1.9,359,0.00,0.00,0.00,25.1,0.0,.
15min,AgWx,birchsprings,428,16JAN2017:14:00:00,9.1,3.7,83,299,3.7,1.4,318,0.00,0.00,0.00,25.0,0.0,.
15min,AgWx,birchsprings,428,16JAN2017:14:15:00,8.8,4.6,83,274,3.8,1.9,47,0.00,0.00,0.00,25.1,0.0,.
15min,AgWx,birchsprings,428,16JAN2017:14:30:00,9.2,5.1,83,272,3.3,1.2,274,0.00,0.00,0.00,25.1,0.0,.
15min,AgWx,birchsprings,428,16JAN2017:14:45:00,8.5,4.4,82,237,3.6,1.6,328,0.00,0.00,0.00,25.0,0.0,.
15min,AgWx,birchsprings,428,16JAN2017:15:00:00,10.2,5.4,84,236,3.3,1.3,114,0.00,0.00,0.00,25.1,0.0,.
15min,AgWx,birchsprings,428,16JAN2017:15:15:00,8.5,5.0,83,187,4.9,2.0,100,0.00,0.00,0.00,25.0,0.0,.
15min,AgWx,birchsprings,428,16JAN2017:15:30:00,8.8,5.2,84,156,4.0,2.1,113,0.00,0.00,0.00,25.0,0.0,.
15min,AgWx,birchsprings,428,16JAN2017:15:45:00,8.4,5.3,84,137,4.2,2.1,164,0.00,0.00,0.00,25.1,0.0,.
15min,AgWx,birchsprings,428,16JAN2017:16:00:00,8.9,5.1,85,124,5.0,2.1,174,0.00,0.00,0.00,25.0,0.0,.
15min,AgWx,birchsprings,428,16JAN2017:16:15:00,9.2,5.5,85,102,3.1,0.9,153,0.00,0.00,0.00,25.1,0.0,.
15min,AgWx,birchsprings,428,16JAN2017:16:30:00,7.3,3.9,83,72,2.8,1.0,231,0.00,0.00,0.00,25.0,0.0,.
15min,AgWx,birchsprings,428,16JAN2017:16:45:00,6.8,2.7,83,45,1.7,1.2,209,0.00,0.00,0.00,25.0,0.0,.
15min,AgWx,birchsprings,428,16JAN2017:17:00:00,5.2,1.9,82,24,2.6,1.9,193,0.00,0.00,0.00,25.1,0.0,.
15min,AgWx,birchsprings,428,16JAN2017:17:15:00,4.6,0.3,81,7,3.6,1.5,187,0.00,0.00,0.00,25.1,0.0,.
15min,AgWx,birchsprings,428,16JAN2017:17:30:00,3.5,-0.3,81,3,1.6,0.4,257,0.00,0.00,0.00,25.1,0.0,.
15min,AgWx,birchsprings,428,16JAN2017:17:45:00,1.2,-2.7,80,0,1.8,1.1,232,0.00,0.00,0.00,25.1,0.0,.
15min,AgWx,birchsprings,428,16JAN2017:18:00:00,1.2,-3.3,81,0,1.8,1.1,220,0.00,0.00,0.00,25.2,0.0,.
15min,AgWx,birchsprings,428,16JAN2017:18:15:00,2.2,-2.7,82,0,1.6,0.7,219,0.00,0.00,0.00,25.1,0.0,.
15min,AgWx,birchsprings,428,16JAN2017:18:30:00,4.7,-0.4,84,0,3.7,1.5,288,0.00,0.00,0.00,25.1,0.0,.
15min,AgWx,birchsprings,428,16JAN2017:18:45:00,5.3,1.5,85,0,3.5,2.2,303,0.00,0.00,0.00,25.1,0.0,.
15min,AgWx,birchsprings,428,16JAN2017:19:00:00,5.1,1.5,84,0,4.3,2.9,332,0.00,0.00,0.00,25.1,0.0,.
15min,AgWx,birchsprings,428,16JAN2017:19:15:00,4.9,1.1,83,0,4.1,2.4,314,0.00,0.00,0.00,25.1,0.0,.
15min,AgWx,birchsprings,428,16JAN2017:19:30:00,4.2,0.7,83,0,5.0,3.2,311,0.00,0.00,0.00,25.0,0.0,.
15min,AgWx,birchsprings,428,16JAN2017:19:45:00,3.5,-0.2,83,0,5.8,3.7,308,0.00,0.00,0.00,25.1,0.0,.
15min,AgWx,birchsprings,428,16JAN2017:20:00:00,3.2,-0.7,83,0,6.2,3.7,314,0.00,0.00,0.00,25.1,0.0,.
15min,AgWx,birchsprings,428,16JAN2017:20:15:00,2.8,-1.3,82,0,5.8,3.4,310,0.00,0.00,0.00,25.0,0.0,.
15min,AgWx,birchsprings,428,16JAN2017:20:30:00,2.3,-1.9,82,0,5.7,3.3,318,0.00,0.00,0.00,25.0,0.0,.
15min,AgWx,birchsprings,428,16JAN2017:20:45:00,1.6,-2.4,81,0,6.7,4.5,324,0.00,0.00,0.00,25.1,0.0,.
15min,AgWx,birchsprings,428,16JAN2017:21:00:00,1.0,-3.3,81,0,6.8,4.5,321,0.00,0.00,0.00,25.0,0.0,.
15min,AgWx,birchsprings,428,16JAN2017:21:15:00,0.3,-4.0,80,0,7.1,4.5,326,0.00,0.00,0.00,25.0,0.0,.
15min,AgWx,birchsprings,428,16JAN2017:21:30:00,-0.4,-4.9,80,0,7.0,4.4,334,0.00,0.00,0.00,25.0,0.0,.
15min,AgWx,birchsprings,428,16JAN2017:21:45:00,-0.7,-5.7,79,0,7.2,4.4,324,0.00,0.00,0.00,25.0,0.0,.
15min,AgWx,birchsprings,428,16JAN2017:22:00:00,-0.9,-5.6,79,0,5.9,3.8,316,0.00,0.00,0.00,25.0,0.0,.
15min,AgWx,birchsprings,428,16JAN2017:22:15:00,-1.2,-5.9,79,0,6.9,4.3,310,0.00,0.00,0.00,24.9,0.0,.
15min,AgWx,birchsprings,428,16JAN2017:22:30:00,-1.4,-6.3,79,0,6.7,4.7,321,0.00,0.00,0.00,24.9,0.0,.
15min,AgWx,birchsprings,428,16JAN2017:22:45:00,-1.5,-6.5,79,0,6.9,4.5,320,0.00,0.00,0.00,24.8,0.0,.
15min,AgWx,birchsprings,428,16JAN2017:23:00:00,-1.6,-6.7,78,0,7.5,4.5,317,0.00,0.00,0.00,24.9,0.0,.
15min,AgWx,birchsprings,428,16JAN2017:23:15:00,-1.3,-6.4,79,0,5.9,4.0,306,0.00,0.00,0.00,24.9,0.0,.
15min,AgWx,birchsprings,428,16JAN2017:23:30:00,-1.8,-6.5,79,0,6.3,4.0,311,0.00,0.00,0.00,24.8,0.0,.
15min,AgWx,birchsprings,428,16JAN2017:23:45:00,-2.0,-7.3,78,0,6.1,3.8,320,0.00,0.00,0.00,24.9,0.0,.
15min,AgWx,blo,425,16JAN2017:00:00:00,12.8,10.9,93,0,3.9,1.6,31,0.00,0.00,0.00,34.8,35.8,51
15min,AgWx,blo,425,16JAN2017:00:15:00,11.7,10.5,92,0,4.0,2.2,144,0.00,0.00,0.00,34.8,35.8,51
15min,AgWx,blo,425,16JAN2017:00:30:00,11.2,9.5,92,0,4.1,2.8,50,0.00,0.00,0.00,34.8,35.8,51
15min,AgWx,blo,425,16JAN2017:00:45:00,11.4,9.4,92,0,3.1,1.5,119,0.00,0.00,0.00,34.9,35.8,51
15min,AgWx,blo,425,16JAN2017:01:00:00,11.5,9.6,92,0,2.9,1.7,61,0.00,0.00,0.00,34.9,35.8,51
15min,AgWx,blo,425,16JAN2017:01:15:00,11.7,9.8,92,0,3.1,2.5,3.2,0.00,0.00,0.00,34.8,35.8,51
15min,AgWx,blo,425,16JAN2017:01:30:00,11.9,10.0,92,0,2.9,0.8,348,0.00,0.00,0.00,34.9,35.7,51
15min,AgWx,blo,425,16JAN2017:01:45:00,11.4,10.0,92,0,4.8,2.1,147,0.00,0.00,0.00,34.8,35.8,51
15min,AgWx,blo,425,16JAN2017:02:00:00,11.4,9.5,92,0,3.4,1.7,179,0.00,0.00,0.00,34.9,35.8,51
15min,AgWx,blo,425,16JAN2017:02:15:00,10.5,8.9,92,0,4.3,2.9,210,0.00,0.00,0.00,34.9,35.7,51
15min,AgWx,blo,425,16JAN2017:02:30:00,10.7,8.6,92,0,4.1,3.1,222,0.00,0.00,0.00,34.9,35.7,51
15min,AgWx,blo,425,16JAN2017:02:45:00,10.5,8.7,92,0,5.7,3.8,196,0.00,0.00,0.00,34.9,35.8,51
15min,AgWx,blo,425,16JAN2017:03:00:00,10.4,8.5,92,0,5.3,3.7,201,0.00,0.00,0.00,34.8,35.8,51
15min,AgWx,blo,425,16JAN2017:03:15:00,10.1,8.4,91,0,5.2,3.8,200,0.00,0.00,0.00,34.9,35.8,51
15min,AgWx,blo,425,16JAN2017:03:30:00,8.6,7.3,91,0,5.3,4.2,207,0.00,0.00,0.00,34.9,35.8,51
15min,AgWx,blo,425,16JAN2017:03:45:00,9.7,7.1,91,0,4.7,3.5,227,0.00,0.00,0.00,34.8,35.7,51
15min,AgWx,blo,425,16JAN2017:04:00:00,9.3,7.2,91,0,3.8,2.8,241,0.00,0.00,0.00,34.8,35.7,52
15min,AgWx,blo,425,16JAN2017:04:15:00,9.0,7.1,91,0,3.2,2.5,232,0.00,0.00,0.00,34.8,35.8,51
15min,AgWx,blo,425,16JAN2017:04:30:00,8.0,6.2,90,0,3.7,2.9,222,0.00,0.00,0.00,34.9,35.8,52
15min,AgWx,blo,425,16JAN2017:04:45:00,6.8,4.9,90,0,3.8,2.7,225,0.00,0.00,0.00,34.9,35.8,52
15min,AgWx,blo,425,16JAN2017:05:00:00,6.4,4.2,89,0,3.5,2.5,232,0.00,0.00,0.00,34.8,35.7,52
15min,AgWx,blo,425,16JAN2017:05:15:00,5.1,3.1,89,0,3.6,2.6,231,0.00,0.00,0.00,34.9,35.7,52
15min,AgWx,blo,425,16JAN2017:05:30:00,4.4,1.8,88,0,3.5,2.7,232,0.00,0.00,0.00,34.8,35.8,52
15min,AgWx,blo,425,16JAN2017:05:45:00,5.6,2.3,89,0,3.3,2.6,226,0.00,0.00,0.00,34.9,35.7,52
15min,AgWx,blo,425,16JAN2017:06:00:00,4.8,2.3,88,0,2.7,1.5,223,0.00,0.00,0.00,34.9,35.8,51
15min,AgWx,blo,425,16JAN2017:06:15:00,4.1,1.6,88,0,2.4,1.8,232,0.00,0.00,0.00,34.8,35.8,52
15min,AgWx,blo,425,16JAN2017:06:30:00,4.5,1.7,88,0,2.2,1.5,215,0.00,0.00,0.00,34.8,35.8,51
15min,AgWx,blo,425,16JAN2017:06:45:00,3.5,1.0,88,0,2.7,1.9,230,0.00,0.00,0.00,34.9,35.7,51
15min,AgWx,blo,425,16JAN2017:07:00:00,4.2,1.0,88,0,2.0,1.4,230,0.00,0.00,0.00,34.9,35.7,51
15min,AgWx,blo,425,16JAN2017:07:15:00,4.4,1.5,88,0,1.6,1.2,227,0.00,0.00,0.00,34.9,35.7,52
15min,AgWx,blo,425,16JAN2017:07:30:00,4.4,1.6,88,0,2.0,1.5,230,0.00,0.00,0.00,34.9,35.8,51
15min,AgWx,blo,425,16JAN2017:07:45:00,4.6,1.9,88,1,2.0,1.6,233,0.00,0.00,0.00,34.9,35.7,51
15min,AgWx,blo,425,16JAN2017:08:00:00,5.0,2.2,88,6,1.9,0.8,219,0.00,0.00,0.00,34.9,35.7,51
15min,AgWx,blo,425,16JAN2017:08:15:00,3.4,1.3,88,31,1.5,0.7,216,0.00,0.00,0.00,34.9,35.7,51
15min,AgWx,blo,425,16JAN2017:08:30:00,4.2,0.6,87,85,2.3,1.6,234,0.00,0.00,0.00,34.9,35.8,52
15min,AgWx,blo,425,16JAN2017:08:45:00,5.2,2.1,88,127,2.2,1.4,230,0.00,0.00,0.00,34.9,35.7,51
15min,AgWx,blo,425,16JAN2017:09:00:00,5.7,2.7,88,172,1.9,1.4,226,0.00,0.00,0.00,34.9,35.8,51
15min,AgWx,blo,425,16JAN2017:09:15:00,7.3,3.6,88,203,1.8,1.3,212,0.00,0.00,0.00,34.9,35.7,51
15min,AgWx,blo,425,16JAN2017:09:30:00,8.7,5.8,89,232,1.6,1.2,205,0.00,0.00,0.00,34.9,35.7,52
15min,AgWx,blo,425,16JAN2017:09:45:00,12.5,8.3,90,259,1.6,0.9,194,0.00,0.00,0.00,34.8,35.7,51
15min,AgWx,blo,425,16JAN2017:10:00:00,11.7,9.8,91,284,1.2,0.7,237,0.00,0.00,0.00,34.9,35.7,51
15min,AgWx,blo,425,16JAN2017:10:15:00,13.9,11.1,91,309,0.7,0.1,242,0.00,0.00,0.00,34.9,35.8,52
15min,AgWx,blo,425,16JAN2017:10:30:00,14.0,11.0,90,341,0.7,0.1,66,0.00,0.00,0.00,34.8,35.7,51
15min,AgWx,blo,425,16JAN2017:10:45:00,12.7,10.3,89,373,1.3,0.8,32,0.00,0.00,0.00,34.9,35.7,51
15min,AgWx,blo,425,16JAN2017:11:00:00,15.5,12.6,91,408,0.9,0.1,68,0.00,0.00,0.00,34.8,35.7,51
15min,AgWx,blo,425,16JAN2017:11:15:00,17.5,14.5,92,363,1.6,1.1,79,0.00,0.00,0.00,34.9,35.7,52
15min,AgWx,blo,425,16JAN2017:11:30:00,18.4,15.6,92,458,0.6,0.1,78,0.00,0.00,0.00,34.9,35.7,52
15min,AgWx,blo,425,16JAN2017:11:45:00,23.1,20.7,95,491,1.3,0.1,193,0.00,0.00,0.00,34.9,35.7,51
15min,AgWx,blo,425,16JAN2017:12:00:00,19.8,17.8,93,504,1.8,0.9,195,0.01,0.01,0.01,34.8,35.7,51